When you browse on this site, cookies collect data to enhance your experience and personalize the content and advertising you see.
Visit our Privacy Policy to learn more. By continuing to use the site, you agree to this use of cookies and data.
  • în România
  • Lista ţărilor
  • Pe 7 zile
  • Temperatura apei
  • Hartă satelitară
  • Meteo pe hartă
  • Widget-uri
  • user-avatar
    Intrare

    Meteo pe oră la Ladino

    Astăzi, 21 Martie, Joi

    Timp Temperatura Precipitaţii Vânt Presiune Umiditate
    00:00 -3°C° 0 mm 2 m/s 750 mmHg 89%
    01:00 -2°C° 0 mm 2 m/s 750 mmHg 87%
    02:00 -4°C° 0 mm 3 m/s 749 mmHg 88%
    03:00 -4°C° 0.1 mm 3 m/s 749 mmHg 89%
    04:00 -2°C° 0.1 mm 3 m/s 748 mmHg 89%
    05:00 -2°C° 0.1 mm 3 m/s 748 mmHg 90%
    06:00 -2°C° 0.1 mm 3 m/s 748 mmHg 89%
    07:00 -1°C° 0.1 mm 3 m/s 748 mmHg 88%
    08:00 0°C° 0.1 mm 3 m/s 748 mmHg 87%
    09:00 0°C° 0 mm 3 m/s 748 mmHg 85%
    10:00 +1°C° 0 mm 3 m/s 748 mmHg 83%
    11:00 +2°C° 0 mm 3 m/s 748 mmHg 81%
    12:00 +2°C° 0 mm 3 m/s 748 mmHg 79%
    13:00 +2°C° 0 mm 3 m/s 748 mmHg 77%
    14:00 +2°C° 0 mm 3 m/s 748 mmHg 75%
    15:00 +2°C° 0 mm 3 m/s 748 mmHg 78%
    16:00 +3°C° 0 mm 2 m/s 748 mmHg 81%
    17:00 +2°C° 0 mm 2 m/s 748 mmHg 84%
    18:00 +2°C° 0 mm 2 m/s 748 mmHg 86%
    19:00 +1°C° 0 mm 2 m/s 748 mmHg 89%
    20:00 +1°C° 0 mm 1 m/s 748 mmHg 92%
    21:00 -1°C° 0 mm 2 m/s 748 mmHg 92%
    22:00 -1°C° 0 mm 2 m/s 747 mmHg 92%
    23:00 -1°C° 0 mm 2 m/s 747 mmHg 92%

    Mâine, 22 Martie, Vineri

    Timp Temperatura Precipitaţii Vânt Presiune Umiditate
    00:00 -1°C° 0 mm 3 m/s 746 mmHg 92%
    01:00 0°C° 0 mm 3 m/s 745 mmHg 91%
    02:00 0°C° 0 mm 3 m/s 745 mmHg 91%
    03:00 0°C° 0.3 mm 3 m/s 744 mmHg 90%
    04:00 0°C° 0.3 mm 4 m/s 742 mmHg 90%
    05:00 0°C° 0.3 mm 4 m/s 741 mmHg 89%
    06:00 0°C° 1.4 mm 5 m/s 740 mmHg 89%
    07:00 +1°C° 1.4 mm 5 m/s 740 mmHg 89%
    08:00 +1°C° 1.4 mm 6 m/s 739 mmHg 89%
    09:00 +1°C° 0.5 mm 6 m/s 739 mmHg 84%
    10:00 -1°C° 0.5 mm 7 m/s 740 mmHg 80%
    11:00 -1°C° 0.5 mm 8 m/s 741 mmHg 76%
    12:00 -2°C° 0 mm 8 m/s 741 mmHg 73%
    13:00 -2°C° 0 mm 8 m/s 742 mmHg 70%
    14:00 -2°C° 0 mm 7 m/s 743 mmHg 67%
    15:00 -2°C° 0.1 mm 7 m/s 743 mmHg 70%
    16:00 -2°C° 0.1 mm 6 m/s 744 mmHg 72%
    17:00 -3°C° 0.1 mm 6 m/s 744 mmHg 74%
    18:00 -3°C° 0.1 mm 6 m/s 744 mmHg 76%
    19:00 -3°C° 0.1 mm 6 m/s 745 mmHg 78%
    20:00 -3°C° 0.1 mm 6 m/s 745 mmHg 81%
    21:00 -3°C° 0 mm 6 m/s 746 mmHg 82%
    22:00 -3°C° 0 mm 6 m/s 746 mmHg 83%
    23:00 -2°C° 0 mm 5 m/s 746 mmHg 84%

    Poimâine, 23 Martie, Sâmbătă

    Timp Temperatura Precipitaţii Vânt Presiune Umiditate
    00:00 -2°C° 0 mm 5 m/s 747 mmHg 84%
    01:00 -2°C° 0 mm 5 m/s 748 mmHg 85%
    02:00 -2°C° 0 mm 5 m/s 748 mmHg 86%
    03:00 -2°C° 0 mm 4 m/s 749 mmHg 87%
    04:00 -2°C° 0 mm 4 m/s 749 mmHg 88%
    05:00 -3°C° 0 mm 4 m/s 750 mmHg 90%
    06:00 -2°C° 0 mm 4 m/s 750 mmHg 89%
    07:00 -1°C° 0 mm 3 m/s 751 mmHg 88%
    08:00 -1°C° 0 mm 3 m/s 752 mmHg 87%
    09:00 0°C° 0 mm 3 m/s 752 mmHg 85%
    10:00 +2°C° 0 mm 2 m/s 752 mmHg 83%
    11:00 +2°C° 0 mm 2 m/s 752 mmHg 81%
    12:00 +4°C° 0 mm 1 m/s 752 mmHg 79%
    13:00 +4°C° 0 mm 1 m/s 751 mmHg 78%
    14:00 +4°C° 0 mm 1 m/s 751 mmHg 76%
    15:00 +4°C° 0 mm 1 m/s 751 mmHg 79%
    16:00 +4°C° 0 mm 1 m/s 750 mmHg 81%
    17:00 +3°C° 0 mm 1 m/s 750 mmHg 84%
    18:00 +3°C° 0 mm 1 m/s 750 mmHg 86%
    19:00 +1°C° 0 mm 2 m/s 750 mmHg 88%
    20:00 -1°C° 0 mm 2 m/s 749 mmHg 89%
    21:00 -1°C° 0 mm 3 m/s 749 mmHg 89%
    22:00 -1°C° 0 mm 3 m/s 748 mmHg 88%
    23:00 -1°C° 0 mm 4 m/s 747 mmHg 87%

    24 Martie, Duminică

    Timp Temperatura Precipitaţii Vânt Presiune Umiditate
    00:00 -1°C° 0.3 mm 4 m/s 747 mmHg 87%
    01:00 -1°C° 0.3 mm 4 m/s 746 mmHg 88%
    02:00 -1°C° 0.3 mm 4 m/s 746 mmHg 88%
    03:00 0°C° 0.6 mm 3 m/s 745 mmHg 89%
    04:00 0°C° 0.6 mm 3 m/s 745 mmHg 90%
    05:00 0°C° 0.6 mm 3 m/s 744 mmHg 92%
    06:00 +1°C° 0 mm 3 m/s 744 mmHg 89%
    07:00 +1°C° 0 mm 3 m/s 744 mmHg 87%
    08:00 0°C° 0 mm 4 m/s 744 mmHg 85%
    09:00 +1°C° 0 mm 4 m/s 744 mmHg 78%
    10:00 +3°C° 0 mm 4 m/s 744 mmHg 70%
    11:00 +4°C° 0 mm 4 m/s 744 mmHg 63%
    12:00 +2°C° 0.2 mm 5 m/s 744 mmHg 64%
    13:00 +2°C° 0.2 mm 5 m/s 744 mmHg 65%
    14:00 +1°C° 0.2 mm 5 m/s 744 mmHg 66%
    15:00 +1°C° 0.1 mm 5 m/s 744 mmHg 69%
    16:00 0°C° 0.1 mm 4 m/s 744 mmHg 72%
    17:00 0°C° 0.1 mm 4 m/s 745 mmHg 74%
    18:00 -1°C° 0 mm 4 m/s 745 mmHg 76%
    19:00 -1°C° 0 mm 3 m/s 745 mmHg 78%
    20:00 -2°C° 0 mm 3 m/s 746 mmHg 80%
    21:00 -4°C° 0 mm 3 m/s 746 mmHg 80%
    22:00 -4°C° 0 mm 3 m/s 746 mmHg 81%
    23:00 -4°C° 0 mm 3 m/s 746 mmHg 81%

    25 Martie, Luni

    Timp Temperatura Precipitaţii Vânt Presiune Umiditate
    00:00 -5°C° 0 mm 3 m/s 746 mmHg 82%
    01:00 -5°C° 0 mm 3 m/s 746 mmHg 83%
    02:00 -5°C° 0 mm 3 m/s 746 mmHg 84%
    03:00 -5°C° 0 mm 3 m/s 746 mmHg 85%
    04:00 -6°C° 0 mm 3 m/s 746 mmHg 85%
    05:00 -5°C° 0 mm 2 m/s 745 mmHg 86%
    06:00 -5°C° 0 mm 3 m/s 745 mmHg 82%
    07:00 -4°C° 0 mm 3 m/s 745 mmHg 79%
    08:00 -2°C° 0 mm 3 m/s 745 mmHg 75%
    09:00 -1°C° 0 mm 3 m/s 745 mmHg 69%
    10:00 0°C° 0 mm 3 m/s 745 mmHg 62%
    11:00 +2°C° 0 mm 2 m/s 745 mmHg 55%
    12:00 +2°C° 0 mm 2 m/s 745 mmHg 53%
    13:00 +3°C° 0 mm 2 m/s 744 mmHg 52%
    14:00 +3°C° 0 mm 2 m/s 744 mmHg 50%
    15:00 +4°C° 0 mm 1 m/s 743 mmHg 54%
    16:00 +3°C° 0 mm 1 m/s 743 mmHg 59%
    17:00 +3°C° 0 mm 1 m/s 743 mmHg 63%
    18:00 +2°C° 0 mm 1 m/s 743 mmHg 67%
    19:00 +1°C° 0 mm 1 m/s 743 mmHg 70%
    20:00 -2°C° 0 mm 2 m/s 742 mmHg 74%
    21:00 -2°C° 0 mm 2 m/s 742 mmHg 74%
    22:00 -3°C° 0 mm 2 m/s 742 mmHg 75%
    23:00 -3°C° 0 mm 2 m/s 742 mmHg 75%

    26 Martie, Marţi

    Timp Temperatura Precipitaţii Vânt Presiune Umiditate
    00:00 -3°C° 0 mm 2 m/s 742 mmHg 75%
    01:00 -3°C° 0 mm 2 m/s 741 mmHg 74%
    02:00 -3°C° 0 mm 2 m/s 741 mmHg 74%
    03:00 -3°C° 0 mm 2 m/s 741 mmHg 74%
    04:00 -3°C° 0 mm 2 m/s 741 mmHg 74%
    05:00 -4°C° 0 mm 3 m/s 741 mmHg 74%
    06:00 -2°C° 0 mm 3 m/s 741 mmHg 71%
    07:00 -1°C° 0 mm 3 m/s 741 mmHg 68%
    08:00 -2°C° 0 mm 4 m/s 741 mmHg 65%
    09:00 -1°C° 0 mm 4 m/s 741 mmHg 61%
    10:00 0°C° 0 mm 4 m/s 741 mmHg 56%
    11:00 +1°C° 0 mm 5 m/s 741 mmHg 52%
    12:00 +2°C° 0 mm 5 m/s 741 mmHg 51%
    13:00 +2°C° 0 mm 5 m/s 741 mmHg 50%
    14:00 +2°C° 0 mm 5 m/s 741 mmHg 49%
    15:00 +1°C° 0.1 mm 4 m/s 741 mmHg 55%
    16:00 +1°C° 0.1 mm 3 m/s 741 mmHg 61%
    17:00 +1°C° 0.1 mm 2 m/s 742 mmHg 67%
    18:00 0°C° 0.1 mm 3 m/s 742 mmHg 72%
    19:00 -1°C° 0.1 mm 3 m/s 742 mmHg 77%
    20:00 -1°C° 0.1 mm 3 m/s 742 mmHg 81%
    21:00 -2°C° 0.3 mm 3 m/s 743 mmHg 85%
    22:00 -2°C° 0.3 mm 2 m/s 743 mmHg 88%
    23:00 -2°C° 0.3 mm 2 m/s 743 mmHg 91%
    Arată mai mult